Location: Gisborne
(38.6530°S, 178.0040°E)
Time: 19:52:49
(UTC+13:00)

Cosmos 2228 Rocket - Pass Details

Date: 24 January 2019
Orbit: 617 x 653 km, 82.5° (Epoch: 16 February)

Event Time Altitude Azimuth Distance (km) Brightness Sun altitude
Exits shadow 21:12:53 - 24° (NNE) 2,353 5.5 -8.2°
Reaches altitude 10° 21:13:53 10° 29° (NNE) 1,987 5.1 -8.4°
Maximum altitude 21:17:44 30° 90° (E) 1,123 4.0 -9.0°
Drops below altitude 10° 21:21:38 10° 151° (SSE) 2,017 5.8 -9.6°
Sets 21:24:05 0° 161° (SSE) 2,936 6.7 -10.0°
